Terminal Aerodrome Forecast
Issued by NWS

Home | Current Version | Previous Version | Text Only | Print | Product List | Glossary On
Versions: 1 2 3 4 5 6 7 8 9 10 11 12 13 14
000
FTUS45 KRIW 260924 AAA
TAFJAC
TAF AMD
KJAC 260924Z 2609/2706 VRB05KT P6SM VCFG FEW002 SCT100
      TEMPO 2609/2611 3/4SM BR BKN002
     FM261600 19008KT P6SM VCSH SCT070 BKN100
     FM261900 24012G18KT P6SM VCTS SCT050CB BKN070
     FM270100 36007KT P6SM VCSH BKN070
     FM270500 01006KT P6SM BKN080
      AMD LTD TO CLD VIS AND WIND=

USA.gov is the U.S. government's official web portal to all federal, state and local government web resources and services.